Miscellaneous Local Product
Issued by NWS Hastings, NE

Home | Current Version | Previous Version | Graphics & Text | Print | Product List | Glossary On
Versions: 1 2 3 4 5 6 7 8 9 10 11 12 13 14 15 16 17 18 19 20 21 22 23 24 25 26 27 28 29 30 31 32 33 34 35 36 37 38 39 40 41 42 43 44 45 46 47 48 49 50
255
AXUS43 KGID 230002
MISGRI

GID CWA HOURLY WEATHER ROUNDUP
NATIONAL WEATHER SERVICE HASTINGS NE
700 PM CDT WED MAR 22 2017

NOTE: "FAIR" INDICATES FEW OR NO CLOUDS BELOW 12,000 FEET WITH NO
SIGNIFICANT WEATHER AND/OR OBSTRUCTIONS TO VISIBILITY.

...SOUTH CENTRAL NEBRASKA...

CITY           SKY/WX    TMP DP  RH WIND       PRES   REMARKS
GRAND ISLAND   CLOUDY    53  21  28 S17G25    30.09F
HASTINGS       CLOUDY    51  23  33 SE17G23   30.09F
KEARNEY        CLOUDY    48  25  40 SE17      30.09R
ORD            CLOUDY    53  21  28 S20G29    30.03F
YORK           CLOUDY    55  18  22 S20       30.11S
AURORA         CLOUDY    54  18  24 SE14G22   30.10S
LEXINGTON      CLOUDY    51  28  41 SE21      30.04S
HOLDREGE       CLOUDY    49  25  38 SE17      30.06S
HEBRON         CLOUDY    54  21  27 SE17      30.12S

...NEBRASKA PANHANDLE...

CITY           SKY/WX    TMP DP  RH WIND       PRES   REMARKS
CHADRON        CLOUDY    67  37  33 S12       29.78S
ALLIANCE       CLOUDY    60  36  40 S21G28    29.86R
SCOTTSBLUFF    CLOUDY    68  34  28 SE15      29.80F
SIDNEY         CLOUDY    62  35  36 SE23G30   29.86F

...WESTERN AND NORTH CENTRAL NEBRASKA...

CITY           SKY/WX    TMP DP  RH WIND       PRES   REMARKS
VALENTINE      CLOUDY    51  30  44 S24G33    29.92S
AINSWORTH      CLOUDY    49  32  50 S24G32    29.96F
ONEILL         CLOUDY    52  23  32 SE18      30.03F
BROKEN BOW     CLOUDY    51  27  39 S22G30    30.02F
IMPERIAL       SUNNY     55  35  47 S25G31    29.94S
NORTH PLATTE   CLOUDY    52  30  43 SE18G24   29.98F
MCCOOK         CLOUDY    52  33  48 SE16G23   30.01S

...EASTERN NEBRASKA...

CITY           SKY/WX    TMP DP  RH WIND       PRES   REMARKS
NORFOLK        CLOUDY    47  22  37 SE17      30.10F
SO SIOUX CITY  CLOUDY    45  29  53 SE22      30.17F
TEKAMAH        PTCLDY    48  25  40 SE21G26   30.18F
COLUMBUS       CLOUDY    50  19  29 SE14      30.13F
ALBION         CLOUDY    53  16  23 SE16G25   30.08F
OMAHA EPPLEY   CLOUDY    49  24  37 SE22      30.19F
OFFUTT AFB     PTCLDY    48  25  40 E21       30.19F
MILLARD        CLOUDY    50  28  43 SE10G17   30.18F
LINCOLN        CLOUDY    53  22  29 SE20G28   30.16F
NEBRASKA CITY  MOCLDY    50  17  27 SE21G26   30.18F
BEATRICE       CLOUDY    56  23  27 SE15G21   30.14S
FALLS CITY     CLOUDY    53  25  33 E18       30.18F

...NORTHERN KANSAS...

CITY           SKY/WX    TMP DP  RH WIND       PRES   REMARKS
GOODLAND       CLOUDY    57  39  51 SE25      29.92F
HILL CITY      CLOUDY    53  34  48 SE12      30.04F
NORTON         CLOUDY    50  27  40 SE13G18   30.04S
PHILLIPSBURG   CLOUDY    54  30  40 SE15      30.06F
HAYS             N/A     53  36  52 SE16      30.05S
RUSSELL        CLOUDY    53  34  48 SE18      30.05F
CONCORDIA      CLOUDY    54  26  34 SE22      30.10F
SALINA         CLOUDY    58  31  35 SE14      30.12F
TOPEKA         CLOUDY    56  30  37 E15       30.18S



USA.gov is the U.S. government's official web portal to all federal, state and local government web resources and services.